Regional Weather Roundup
Issued by NWS Newport/Morehead, NC

Current Version | Previous Version | Graphics & Text | Print | Product List | Glossary Off
Versions: 1 2 3 4 5 6 7 8 9 10 11 12 13 14 15 16 17 18 19 20 21 22 23 24 25 26 27 28 29 30 31 32 33 34 35 36 37 38 39 40 41 42 43 44 45 46 47 48 49 50
000 ASUS42 KMHX 151922 RWRMHX WEATHER ROUNDUP FOR EASTERN NORTH CAROLINA NATIONAL WEATHER SERVICE NEWPORT/MOREHEAD CITY NC 300 PM EDT MON SEP 15 2014 NOTE: "FAIR" INDICATES FEW OR NO CLOUDS BELOW 12,000 FEET WITH NO SIGNIFICANT WEATHER AND/OR OBSTRUCTIONS TO VISIBILITY NCZ015>017-031-032-045>047-102-103-152000- NORTH COAST CITY SKY/WX TMP DP RH WIND PRES REMARKS EDENTON CLOUDY 74 63 69 SE7 30.16F ELIZABETH CITY CLOUDY 73 61 65 E6 30.16F KITTY HAWK CLOUDY 73 58 59 NE5 30.15F MANTEO PTSUNNY 73 60 64 N8 30.16F $$ NCZ045>047-081-094-103-104-152000- CENTRAL COAST CITY SKY/WX TMP DP RH WIND PRES REMARKS FRISCO PTSUNNY 75 63 66 E9 30.15F SWANQUARTER N/A 77 N/A N/A SW3G9 30.12S $$ NCZ095-097-098-100-101-152000- SOUTHERN COAST CITY SKY/WX TMP DP RH WIND PRES REMARKS BEAUFORT PTSUNNY 79 64 60 E7 30.15F CEDAR ISLAND N/A 75 N/A N/A NE5G12 30.21S JACKSONVILLE CLOUDY 74 63 68 CALM 30.17F NEWPORT NOT AVBL PINEY ISLAND CLOUDY 77 63 61 NE9 30.16F WILMINGTON CLOUDY 77 64 64 E7 30.16F $$ NCZ011>013-027>030-043-044-078>080-089-090>093-098-152000- COASTAL PLAIN CITY SKY/WX TMP DP RH WIND PRES REMARKS AHOSKIE MOSUNNY 72 60 65 CALM 30.17S CLINTON CLOUDY 74 66 76 CALM 30.18F ELIZABETHTOWN CLOUDY 75 66 73 CALM 30.16F GOLDSBORO PTSUNNY 75 68 78 VRB2 30.15F GREENVILLE PTSUNNY 75 63 64 S5 30.18F HAVELOCK CLOUDY 77 64 64 NE6 30.17F KENANSVILLE CLOUDY 73 63 71 CALM 30.18F KINSTON PTSUNNY 75 63 64 CALM 30.18F NEW BERN CLOUDY 76 63 64 CALM 30.18F RICHLANDS CLOUDY 75 63 64 SE6 30.17F ROANOKE RAPIDS NOT AVBL ROCKY MOUNT CLOUDY 74 62 66 S3 30.17F WASHINGTON PTSUNNY 73 63 70 E3 30.17F WHITEVILLE CLOUDY 74 67 80 CALM 30.16F $$ AMZ130-135-150-152-154-156-158-170-250-252-270-ANZ085-086-088-633-658-670-152000- MARINE OBSERVATIONS STATION/POSITION TIME TEMP WIND PRES WAVE SWELL AIR SEA DIR/SP/G HT/PER HT/PER (UTC) (F) (DEG/KT/KT) (MB) (FT/S) (FT/S) CHESAPEAKE LIGHT 1900 68 60/ 8/ 9 1022.1 BUOY 44014 1900 70 80 20/ 8/ 12 1021.0 2/ 7 2/ 7 DUCK 1900 70 76 50/ 8/ 10 1020.7 2E DUCK 1900 N/A 2/ 8 OREGON INLET 1900 73 74 50/ 8/ 11 1021.1 BUOY 44095 1900 77 N/A 4/ 8 20E OREGON INLET NOT AVBL HATTERAS CG 1900 74 76 40/ 8/ 11 1021.3 DIAMOND BUOY 1900 74 360/ 12/ 14 1020.5 4/ 8 3/ 8 CAPE LOOKOUT 1900 75 50/ 9/ 11 1021.0 BEAUFORT LAB 1900 77 79 110/ 4/ 8 1020.5 30 SE NEW RIVER 1900 76 82 50/ 8/ 12 1021.4 3/ 8 2/ 8 5 SE WRIGHTSVILL 1900 71 81 60/ 10/ 12 N/A BUOY 41002 1844 77 83 250/ 4/ 6 1020.2 4/ 6 3/ 6 BUOY 41004 1900 77 84 280/ 6/ 6 1020.0 2/ 6 2/ 6 $$

USA.gov is the U.S. government's official web portal to all federal, state and local government web resources and services.